User: anonymous   Login
Location: South Tamworth Observatory
(43.8246°N, 71.3026°W)
Time: 12:40:35
(UTC-04:00)
Language:

Cosmos 2208 Rocket - Orbit

View from above orbital plane
View from above orbital plane
View from above satellite
View from above satellite

Ground track
Ground track

The orbit data is extracted from the following two-line orbital elements,

1 22081U 92053B   17142.87023089 +.00000030 +00000-0 +20024-4 0  9999
2 22081 074.0427 123.7417 0034755 099.6590 260.8491 14.33379347294735
Epoch (UTC): 22 May 2017 20:53:07
Eccentricity: 0.0034755
inclination: 74.0427°
perigee height: 755 km
apogee height: 805 km
right ascension of ascending node: 123.7417°
argument of perigee: 99.6590°
revolutions per day: 14.33379347
mean anomaly at epoch: 260.8491°
orbit number at epoch: 29473

The dashed part of the orbit path shows where the satellite is in the earth's shadow,  

DLR